Weather in Balkanabat

Turkmenistan     39°30′32″N   54°21′45″E
temp.,
°C
wind,
m/s
gust,
m/s
humid.,
%
clouds,
%
prec.,
mm/h
press.,
hPa
HPBL,
m
25 february, thu
thu2523:00−4nnw44333 0.0 1040586
02:00−3nnw23400 0.0 1040338
05:00−3ene22470 0.0 1040280
08:00−5ese45560 0.0 1040171
11:00−3ese44470 0.0 1040436
14:00−1se44470 0.0 1040763
17:000se44420 0.0 1039760
20:00−2ese684363 0.0 1038227
26 february, fri
fri2623:00−2e454367 0.0 1037158
02:00−2e23420 0.0 1035118
05:00−2ese12450 0.0 103374
08:00−2ese464429 0.0 1033138
11:00+1ese343940 0.0 1032278
14:00+4se45360 0.0 1031463
17:00+5sse33326 0.0 1029425
20:00+3s11413 0.0 102844
27 february, sat
sat2723:00+2nnw124829 0.0 102923
02:00+1nne015517 0.0 102722
05:00+1n116612 0.0 102622
08:000w01720 0.0 102622
11:00+5sse12500 0.0 1026264
14:00+8sse12320 0.0 1024623
17:00+10se222529 0.0 1022692
20:00+8e243599 0.0 1021108
28 february, sun
sun2823:00+7ne333662 0.0 101945
02:00+6nne223825 0.0 101725
05:00+5nw224246 0.0 101523
08:00+4sw124338 0.0 101522
11:00+8wsw113220 0.0 1015165
14:00+12wnw11260 0.0 1014392
17:00+14w11220 0.0 1013561
20:00+12nw01340 0.0 101322
1 march, mon
mon123:00+10nnw23340 0.0 101425
02:00+9nnw34340 0.0 101435
05:00+8nnw34330 0.0 101533
08:00+7nnw34360 0.0 101728
11:00+12nw22290 0.0 1019215
14:00+14nw44350 0.0 1019752
17:00+15nw55360 0.0 1020993
20:00+12nnw57330 0.0 1021207